EW6887 Weather Reports


time (UTC)temp
F
wind
direction
speed
knots
gust
knots
rain 1hr
in
rain 24hr
in
rain mn
in
humidity
%
barometer
mb
20260504174513 73 99 0.0 0.0 0.00 0.00 0.00 45 1010.0
20260504173012 74 74 0.0 0.0 0.00 0.00 0.00 43 1009.9
20260504171556 74 74 0.0 0.0 0.00 0.00 0.00 42 1009.9
20260504081525 65 331 0.0 0.0 0.00 0.00 0.00 48 1012.9
20260504050024 56 346 0.0 0.0 0.00 0.00 0.00 52 1013.3
20260504044515 55 338 0.0 0.0 0.00 0.00 0.00 54 1013.0
20260504043009 55 341 0.0 0.0 0.00 0.00 0.00 54 1013.0
20260504041601 55 13 0.0 0.0 0.00 0.00 0.00 53 1013.0
20260504040051 56 325 0.0 0.0 0.00 0.00 0.00 52 1013.0
20260504034555 56 333 0.0 0.0 0.00 0.00 0.00 51 1013.0
20260504033008 57 315 0.0 0.0 0.00 0.00 0.00 49 1012.9
20260504031622 57 319 0.0 0.0 0.00 0.00 0.00 49 1012.9
20260504030112 57 329 0.0 0.0 0.00 0.00 0.00 49 1012.9
20260504024551 58 313 0.0 0.0 0.00 0.00 0.00 48 1013.1
20260504023047 58 342 0.0 0.0 0.00 0.00 0.00 48 1013.0
20260504021543 58 26 0.0 0.0 0.00 0.00 0.00 47 1012.9
20260504020032 58 12 0.0 0.0 0.00 0.00 0.00 47 1012.9
20260504014524 58 350 0.0 0.0 0.00 0.00 0.00 46 1013.0
20260504013030 58 328 0.0 0.0 0.00 0.00 0.00 47 1013.0
20260504011510 58 5 0.0 0.0 0.00 0.00 0.00 47 1012.9
20260504010001 58 324 0.0 0.0 0.00 0.00 0.00 46 1012.9
20260504004555 58 333 0.0 0.0 0.00 0.00 0.00 46 1012.8
20260504003050 59 336 0.0 0.0 0.00 0.00 0.00 45 1012.9
20260504001550 59 284 0.0 0.0 0.00 0.00 0.00 46 1013.0
20260504000051 59 311 0.0 0.0 0.00 0.00 0.00 46 1013.0
20260503234532 59 332 0.0 0.0 0.00 0.00 0.00 46 1013.1
20260503233029 59 336 0.0 0.0 0.00 0.00 0.00 46 1013.2
20260503231516 59 360 0.0 0.0 0.00 0.00 0.00 47 1013.2
20260503230007 59 329 0.0 0.0 0.00 0.00 0.00 47 1013.2
20260503224601 60 327 0.0 0.0 0.00 0.00 0.00 47 1013.3
20260503223052 60 320 0.0 0.0 0.00 0.00 0.00 47 1013.2
20260503221550 60 319 0.0 0.0 0.00 0.00 0.00 47 1013.3
20260503220043 61 277 0.0 0.0 0.00 0.00 0.00 48 1013.4
20260503214532 61 311 0.0 0.0 0.00 0.00 0.00 47 1013.4
20260503213024 62 320 0.0 0.0 0.00 0.00 0.00 46 1013.4
20260503211517 62 308 0.0 0.0 0.00 0.00 0.00 47 1013.4
20260503210011 62 309 0.0 0.0 0.00 0.00 0.00 47 1013.5
20260503204601 62 307 0.0 0.0 0.00 0.00 0.00 47 1013.5
20260503203052 63 314 0.0 0.0 0.00 0.00 0.00 46 1013.5
20260503201547 63 315 0.0 0.0 0.00 0.00 0.00 46 1013.5
20260503200040 64 298 0.0 0.0 0.00 0.00 0.00 45 1013.5
20260503194530 64 309 0.0 0.0 0.00 0.00 0.00 44 1013.5
20260503193021 64 303 0.0 0.0 0.00 0.00 0.00 43 1013.5
20260503191511 65 309 0.0 0.0 0.00 0.00 0.00 42 1013.5
20260503190002 66 319 0.0 0.0 0.00 0.00 0.00 40 1013.4
20260503184605 67 323 0.0 0.0 0.00 0.00 0.00 39 1013.3
20260503183050 67 316 0.0 0.0 0.00 0.00 0.00 38 1013.1
20260503181534 69 342 0.0 0.0 0.00 0.00 0.00 35 1012.9
20260503180031 69 351 0.0 0.0 0.00 0.00 0.00 35 1012.8